Previsão horária em Aberdour

Hoje, 26 Janeiro, Terça-feira

Tempo Temperatura Precipitação Vento Pressão Humidade
00:00 +1°C° 0.7 mm 2 m/s 747 mmHg 98%
01:00 +1°C° 0.8 mm 2 m/s 747 mmHg 97%
02:00 +1°C° 0.8 mm 2 m/s 747 mmHg 96%
03:00 0°C° 0.8 mm 3 m/s 747 mmHg 96%
04:00 +1°C° 0 mm 2 m/s 747 mmHg 95%
05:00 +1°C° 0 mm 2 m/s 747 mmHg 94%
06:00 +1°C° 0 mm 1 m/s 747 mmHg 93%
07:00 +1°C° 0 mm 1 m/s 747 mmHg 93%
08:00 +1°C° 0 mm 1 m/s 747 mmHg 92%
09:00 0°C° 0 mm 0 m/s 747 mmHg 92%
10:00 +2°C° 0 mm 1 m/s 746 mmHg 91%
11:00 +2°C° 0 mm 1 m/s 746 mmHg 91%
12:00 +2°C° 0 mm 2 m/s 746 mmHg 91%
13:00 +2°C° 1.1 mm 2 m/s 745 mmHg 93%
14:00 +1°C° 1.1 mm 3 m/s 745 mmHg 95%
15:00 0°C° 1.1 mm 3 m/s 744 mmHg 98%
16:00 0°C° 0.6 mm 3 m/s 743 mmHg 98%
17:00 0°C° 0.6 mm 3 m/s 743 mmHg 98%
18:00 +1°C° 0.6 mm 2 m/s 743 mmHg 98%
19:00 +2°C° 0.2 mm 2 m/s 742 mmHg 98%
20:00 +3°C° 0.2 mm 1 m/s 742 mmHg 98%
21:00 +3°C° 0.2 mm 1 m/s 742 mmHg 98%
22:00 +3°C° 0.1 mm 1 m/s 742 mmHg 98%
23:00 +3°C° 0.1 mm 1 m/s 742 mmHg 98%

Amanhã, 27 Janeiro, Quarta-feira

Tempo Temperatura Precipitação Vento Pressão Humidade
00:00 +3°C° 0.1 mm 2 m/s 742 mmHg 97%
01:00 +3°C° 0 mm 2 m/s 742 mmHg 97%
02:00 +3°C° 0 mm 2 m/s 743 mmHg 98%
03:00 +3°C° 0 mm 2 m/s 743 mmHg 98%
04:00 +3°C° 0.2 mm 2 m/s 743 mmHg 98%
05:00 +3°C° 0.2 mm 2 m/s 744 mmHg 98%
06:00 +2°C° 0.2 mm 2 m/s 744 mmHg 98%
07:00 +2°C° 0.9 mm 2 m/s 745 mmHg 98%
08:00 +1°C° 0.9 mm 3 m/s 745 mmHg 98%
09:00 +1°C° 0.9 mm 3 m/s 746 mmHg 98%
10:00 +1°C° 0.3 mm 3 m/s 747 mmHg 97%
11:00 +1°C° 0.3 mm 3 m/s 747 mmHg 96%
12:00 +1°C° 0.3 mm 3 m/s 748 mmHg 95%
13:00 +1°C° 0 mm 3 m/s 748 mmHg 92%
14:00 +1°C° 0 mm 3 m/s 748 mmHg 90%
15:00 +1°C° 0 mm 3 m/s 749 mmHg 87%
16:00 0°C° 0 mm 3 m/s 749 mmHg 87%
17:00 +1°C° 0 mm 2 m/s 749 mmHg 87%
18:00 -1°C° 0 mm 2 m/s 749 mmHg 87%
19:00 -1°C° 0 mm 2 m/s 749 mmHg 86%
20:00 -1°C° 0 mm 2 m/s 749 mmHg 86%
21:00 -1°C° 0 mm 3 m/s 749 mmHg 85%
22:00 -1°C° 0 mm 3 m/s 748 mmHg 85%
23:00 -1°C° 0 mm 3 m/s 747 mmHg 84%

Depois de amanhã, 28 Janeiro, Quinta-feira

Tempo Temperatura Precipitação Vento Pressão Humidade
00:00 -1°C° 0 mm 3 m/s 746 mmHg 84%
01:00 -1°C° 0 mm 3 m/s 745 mmHg 84%
02:00 -2°C° 0 mm 4 m/s 745 mmHg 83%
03:00 -2°C° 0 mm 4 m/s 744 mmHg 83%
04:00 -1°C° 0.2 mm 4 m/s 743 mmHg 85%
05:00 -1°C° 0.2 mm 5 m/s 742 mmHg 87%
06:00 -1°C° 0.2 mm 5 m/s 741 mmHg 89%
07:00 -1°C° 0.4 mm 5 m/s 741 mmHg 91%
08:00 -1°C° 0.4 mm 5 m/s 740 mmHg 93%
09:00 -1°C° 0.4 mm 5 m/s 740 mmHg 95%
10:00 -1°C° 0.6 mm 5 m/s 740 mmHg 96%
11:00 -1°C° 0.6 mm 5 m/s 740 mmHg 96%
12:00 -1°C° 0.6 mm 5 m/s 740 mmHg 97%
13:00 -1°C° 0.6 mm 5 m/s 740 mmHg 97%
14:00 -1°C° 0.6 mm 5 m/s 739 mmHg 98%
15:00 -1°C° 0.6 mm 5 m/s 739 mmHg 98%
16:00 -1°C° 0.5 mm 4 m/s 739 mmHg 98%
17:00 -1°C° 0.5 mm 4 m/s 739 mmHg 98%
18:00 -1°C° 0.5 mm 4 m/s 738 mmHg 98%
19:00 -1°C° 0.3 mm 4 m/s 738 mmHg 98%
20:00 -1°C° 0.3 mm 4 m/s 738 mmHg 98%
21:00 0°C° 0.3 mm 4 m/s 738 mmHg 98%
22:00 +1°C° 0.4 mm 3 m/s 738 mmHg 98%
23:00 +1°C° 0.4 mm 3 m/s 738 mmHg 98%

29 Janeiro, Sexta-feira

Tempo Temperatura Precipitação Vento Pressão Humidade
00:00 +1°C° 0.4 mm 3 m/s 739 mmHg 99%
01:00 +1°C° 0.2 mm 3 m/s 739 mmHg 98%
02:00 +1°C° 0.2 mm 3 m/s 739 mmHg 98%
03:00 +2°C° 0.2 mm 2 m/s 739 mmHg 98%
04:00 +2°C° 0.6 mm 2 m/s 739 mmHg 98%
05:00 +2°C° 0.6 mm 2 m/s 739 mmHg 98%
06:00 +2°C° 0.6 mm 2 m/s 739 mmHg 98%
07:00 +2°C° 0.5 mm 2 m/s 740 mmHg 98%
08:00 +2°C° 0.5 mm 2 m/s 740 mmHg 98%
09:00 +2°C° 0.5 mm 2 m/s 740 mmHg 99%
10:00 +2°C° 0.1 mm 2 m/s 741 mmHg 98%
11:00 +2°C° 0.1 mm 2 m/s 741 mmHg 98%
12:00 +2°C° 0.1 mm 2 m/s 742 mmHg 98%
13:00 +2°C° 0 mm 2 m/s 742 mmHg 98%
14:00 +3°C° 0 mm 1 m/s 742 mmHg 98%
15:00 +3°C° 0 mm 1 m/s 742 mmHg 98%
16:00 +3°C° 0 mm 1 m/s 743 mmHg 97%
17:00 +3°C° 0 mm 1 m/s 743 mmHg 97%
18:00 +3°C° 0 mm 1 m/s 743 mmHg 97%
19:00 +3°C° 0 mm 1 m/s 743 mmHg 97%
20:00 +3°C° 0 mm 1 m/s 744 mmHg 97%
21:00 +3°C° 0 mm 1 m/s 744 mmHg 97%
22:00 +3°C° 0.1 mm 1 m/s 744 mmHg 97%
23:00 +3°C° 0.1 mm 1 m/s 744 mmHg 97%

30 Janeiro, Sábado

Tempo Temperatura Precipitação Vento Pressão Humidade
00:00 +3°C° 0.1 mm 1 m/s 744 mmHg 97%
01:00 +3°C° 0.1 mm 1 m/s 744 mmHg 97%
02:00 +3°C° 0.1 mm 1 m/s 744 mmHg 97%
03:00 +3°C° 0.1 mm 1 m/s 744 mmHg 97%
04:00 +3°C° 0 mm 1 m/s 744 mmHg 97%
05:00 +3°C° 0 mm 1 m/s 744 mmHg 97%
06:00 +2°C° 0 mm 0 m/s 744 mmHg 97%
07:00 +2°C° 0 mm 0 m/s 744 mmHg 97%
08:00 +2°C° 0 mm 0 m/s 744 mmHg 97%
09:00 +2°C° 0 mm 0 m/s 744 mmHg 97%
10:00 +2°C° 0 mm 0 m/s 744 mmHg 96%
11:00 +3°C° 0 mm 0 m/s 744 mmHg 96%
12:00 +3°C° 0 mm 0 m/s 744 mmHg 96%
13:00 +3°C° 0 mm 0 m/s 744 mmHg 96%
14:00 +3°C° 0 mm 0 m/s 744 mmHg 96%
15:00 +3°C° 0 mm 0 m/s 744 mmHg 96%
16:00 +4°C° 0 mm 1 m/s 743 mmHg 96%
17:00 +3°C° 0 mm 1 m/s 743 mmHg 96%
18:00 +3°C° 0 mm 1 m/s 743 mmHg 96%
19:00 +3°C° 0.1 mm 1 m/s 742 mmHg 96%
20:00 +3°C° 0.1 mm 1 m/s 742 mmHg 96%
21:00 +3°C° 0.1 mm 1 m/s 741 mmHg 96%
22:00 +2°C° 0.2 mm 2 m/s 741 mmHg 96%
23:00 +2°C° 0.2 mm 2 m/s 740 mmHg 96%

31 Janeiro, Domingo

Tempo Temperatura Precipitação Vento Pressão Humidade
00:00 +1°C° 0.2 mm 3 m/s 739 mmHg 96%
01:00 +1°C° 0.2 mm 4 m/s 738 mmHg 96%
02:00 +1°C° 0.2 mm 5 m/s 736 mmHg 96%
03:00 +1°C° 0.2 mm 6 m/s 735 mmHg 96%
04:00 +1°C° 0.4 mm 6 m/s 734 mmHg 95%
05:00 0°C° 0.4 mm 7 m/s 732 mmHg 95%
06:00 0°C° 0.4 mm 7 m/s 731 mmHg 95%
07:00 0°C° 0.9 mm 8 m/s 730 mmHg 95%
08:00 0°C° 0.9 mm 8 m/s 729 mmHg 95%
09:00 0°C° 0.9 mm 9 m/s 728 mmHg 95%
10:00 +1°C° 1.1 mm 9 m/s 727 mmHg 94%
11:00 +1°C° 1.1 mm 9 m/s 727 mmHg 94%
12:00 +2°C° 1.1 mm 8 m/s 727 mmHg 93%
13:00 +2°C° 0.7 mm 8 m/s 726 mmHg 93%
14:00 +2°C° 0.7 mm 8 m/s 726 mmHg 93%
15:00 +2°C° 0.7 mm 8 m/s 726 mmHg 93%
16:00 +2°C° 0.4 mm 8 m/s 726 mmHg 93%
17:00 +2°C° 0.4 mm 8 m/s 726 mmHg 93%
18:00 +3°C° 0.4 mm 7 m/s 727 mmHg 93%
19:00 +3°C° 0.5 mm 7 m/s 727 mmHg 93%
20:00 +3°C° 0.5 mm 7 m/s 727 mmHg 93%
21:00 +3°C° 0.5 mm 7 m/s 728 mmHg 93%
22:00 +3°C° 1.1 mm 6 m/s 728 mmHg 94%
23:00 +3°C° 1.1 mm 6 m/s 728 mmHg 94%
Mostrar mais